Zurück zum Katalog

STARLINK-32490

AktivKommunikationVLEO
NORAD 62126·PAYLOAD·🇺🇸 United States

Gestartet Nov 27, 2024 von Cape Canaveral Space Force Station

Loading…

Nächste Überflüge (nächste 24 Stunden)

TLE

AktuellSource: CelesTrak SupGP

Epoche: Sep 14, 2026, 20:53 UTC

1 62126C 24222N   26257.87062500 -.00013666  00000+0 -49514-3 0  2575
2 62126  42.9993 147.4629 0001253 266.4898 162.4619 15.27575014    19

Verfolge STARLINK-32490 in Echtzeit mit AllMySat

Download on the App Store